{"data":{"norad_id":62800,"intl_designator":"2025-016R","name":"QIANFAN-70","alt_names":[],"object_type":"PAYLOAD","status":"ACTIVE","operator":null,"country":"PRC","launch_date":"2025-01-23","launch_site_code":"TAISC","launch_vehicle":null,"mission":null,"orbit_class":"UNKNOWN","rcs_meters":null,"size_class":null,"mass_kg":null,"dimensions":null,"purposes":[],"wikipedia_slug":null,"has_3d_model":false,"image_url":null,"decayed_at":null,"tle_current":{"epoch":"2026-05-25T04:07:33.168288Z","epoch_age_seconds":67013,"freshness":"FRESH","line1":"1 62800U 25016R   26145.17191167  .00000110  00000+0  15129-3 0  9993","line2":"2 62800  88.9729  86.1513 0013545 217.5958 142.4248 13.51013693 69305","mean_motion":13.51013693,"eccentricity":0.0013545,"inclination_deg":88.9729,"raan_deg":86.1513,"arg_perigee_deg":217.5958,"mean_anomaly_deg":142.4248,"bstar":0.00015129,"rev_number":6930,"period_min":106.58663250129,"perigee_km":1058.4447562454,"apogee_km":1078.6177805846,"semimajor_km":7446.668268415,"source":"CELESTRAK","updated_at":"2026-05-25T13:38:03.278830Z"}}}